HAZ142 ZSHC-RJTT

Flight info

Callsign HAZ142
Flight time N/A
Altitude 33000
Route SUPAR8D SUPAR B221 NINAS G327 LAMEN/N0459F330 A593 SADLI Y590 BEDAR Y591 FUE Y23 ARTIC Y71 XAC
Aircraft A321/M-SDE3FGHIRWY/LB1

Departure

Time N/A
Airport Hangzhou Xiaoshan International Airport (ZSHC)

Arrival

Time 2026-05-01 07:40
Airport Tokyo Haneda International Airport (RJTT)
Time Latitude Longitude Altitude Speed Heading
2026-05-01 07:23 35.06499 139.97567 13039 ft 289 kts 138°
2026-05-01 07:23 35.04296 140.01681 13048 ft 290 kts 135°
2026-05-01 07:24 35.03217 140.03764 13063 ft 291 kts 134°
2026-05-01 07:24 35.02349 140.06064 13065 ft 308 kts 120°
2026-05-01 07:24 35.01687 140.08660 13085 ft 326 kts 117°
2026-05-01 07:24 35.01195 140.11319 13044 ft 323 kts 107°
2026-05-01 07:25 35.01312 140.14104 13042 ft 339 kts 83°
2026-05-01 07:25 35.02289 140.16733 13046 ft 350 kts 55°
2026-05-01 07:25 35.04113 140.18745 13048 ft 350 kts 25°
2026-05-01 07:25 35.06363 140.19678 13033 ft 337 kts 358°
2026-05-01 07:26 35.08681 140.19878 12979 ft 335 kts 355°
2026-05-01 07:26 35.11008 140.20044 12703 ft 333 kts 355°
2026-05-01 07:26 35.13312 140.20210 12448 ft 331 kts 355°
2026-05-01 07:26 35.15579 140.20378 12193 ft 329 kts 355°
2026-05-01 07:27 35.17851 140.20549 11935 ft 327 kts 356°
2026-05-01 07:27 35.20119 140.20720 11681 ft 325 kts 356°
2026-05-01 07:27 35.22370 140.20891 11330 ft 324 kts 356°
2026-05-01 07:27 35.24623 140.21059 10901 ft 326 kts 356°
2026-05-01 07:28 35.26901 140.21226 10428 ft 330 kts 358°
2026-05-01 07:28 35.29203 140.21395 9938 ft 333 kts 358°
2026-05-01 07:28 35.31537 140.21570 9411 ft 338 kts 359°
2026-05-01 07:28 35.33883 140.21749 8852 ft 336 kts 359°
2026-05-01 07:29 35.36200 140.21931 8316 ft 332 kts 359°
2026-05-01 07:29 35.38454 140.21927 8022 ft 314 kts 349°
2026-05-01 07:29 35.40584 140.21713 7834 ft 299 kts 349°
2026-05-01 07:29 35.42626 140.21512 7689 ft 293 kts 349°
2026-05-01 07:30 35.44651 140.21309 7571 ft 292 kts 349°
2026-05-01 07:30 35.46673 140.21102 7441 ft 291 kts 348°
2026-05-01 07:30 35.48684 140.20894 7313 ft 289 kts 349°
2026-05-01 07:30 35.50674 140.20686 7178 ft 289 kts 349°
2026-05-01 07:31 35.52667 140.20470 7049 ft 283 kts 346°
2026-05-01 07:31 35.58022 140.18246 6082 ft 261 kts 315°
2026-05-01 07:32 35.60168 140.15067 5650 ft 230 kts 283°
2026-05-01 07:32 35.60545 140.13224 5483 ft 217 kts 266°
2026-05-01 07:33 35.60537 140.09562 5172 ft 214 kts 262°
2026-05-01 07:33 35.60534 140.07779 5073 ft 202 kts 263°
2026-05-01 07:33 35.60660 140.04505 4709 ft 183 kts 262°
2026-05-01 07:34 35.60659 140.03011 4492 ft 170 kts 261°
2026-05-01 07:34 35.60627 140.00137 3734 ft 166 kts 260°
2026-05-01 07:34 35.60609 139.98722 3347 ft 165 kts 260°
2026-05-01 07:35 35.60591 139.97318 2971 ft 164 kts 260°
2026-05-01 07:35 35.60573 139.95919 2616 ft 163 kts 260°
2026-05-01 07:35 35.60556 139.94530 2291 ft 161 kts 259°
2026-05-01 07:35 35.60540 139.93207 2128 ft 151 kts 258°
2026-05-01 07:36 35.60521 139.91907 1807 ft 153 kts 259°
2026-05-01 07:36 35.60502 139.90580 1475 ft 157 kts 259°
2026-05-01 07:36 35.60486 139.89265 1291 ft 150 kts 258°
2026-05-01 07:36 35.60469 139.87986 1050 ft 150 kts 259°
2026-05-01 07:37 35.60435 139.85431 987 ft 140 kts 260°
2026-05-01 07:37 35.60420 139.84268 972 ft 134 kts 260°
2026-05-01 07:37 35.60391 139.83130 885 ft 134 kts 256°
2026-05-01 07:38 35.60182 139.82014 745 ft 134 kts 246°
2026-05-01 07:38 35.59797 139.80969 715 ft 135 kts 236°
2026-05-01 07:38 35.58631 139.79254 525 ft 127 kts 210°
2026-05-01 07:39 35.57889 139.78661 372 ft 127 kts 208°
2026-05-01 07:39 35.57156 139.78045 197 ft 128 kts 210°
2026-05-01 07:39 35.55848 139.76937 28 ft 75 kts 215°
2026-05-01 07:40 35.55566 139.76700 26 ft 24 kts 209°
2026-05-01 07:40 35.55422 139.76636 25 ft 16 kts 190°
2026-05-01 07:40 35.55344 139.76621 22 ft 9 kts 189°
2026-05-01 07:40 35.55282 139.76609 22 ft 9 kts 189°
2026-05-01 07:41 35.55221 139.76598 23 ft 8 kts 182°
2026-05-01 07:41 35.55173 139.76603 26 ft 6 kts 165°
2026-05-01 07:41 35.55181 139.76772 26 ft 18 kts 59°
2026-05-01 07:42 35.55229 139.76872 23 ft 14 kts 59°
2026-05-01 07:42 35.55277 139.76974 22 ft 13 kts 63°
2026-05-01 07:42 35.55251 139.77052 23 ft 10 kts 145°
2026-05-01 07:42 35.55181 139.77104 24 ft 16 kts 149°
2026-05-01 07:43 35.55067 139.77184 27 ft 19 kts 150°
2026-05-01 07:43 35.54960 139.77260 27 ft 19 kts 150°
2026-05-01 07:43 35.54742 139.77412 23 ft 7 kts 168°
2026-05-01 07:44 35.54688 139.77332 24 ft 5 kts 239°
2026-05-01 07:44 35.54679 139.77314 24 ft 0 kts 239°